Retour au catalogue

IRIDIUM 144

ActifCommunicationsPO
NORAD 43249·PAYLOAD·🇺🇸 United States

Lancé Mar 30, 2018 depuis Vandenberg Space Force Base

Loading…

Prochains Passages (prochaines 24 heures)

TLE

FraisSource: CelesTrak SupGP

Époque: Sep 15, 2026, 01:03 UTC

1 43249C 18030A   26258.04409722 -.00003570  00000+0 -12764-2 0  2581
2 43249  86.3913 252.8114 0002285  89.8009  20.8623 14.34222816    13

Suivez IRIDIUM 144 en temps réel avec AllMySat

Download on the App Store